[[{"header":{"parameterUnit":"m.s-1","parameterCategory":1,"la1":30.2991,"la2":30.254,"lo1":-89.0895,"lo2":-89.0444,"dy":0.0017,"dx":0.0017,"nx":28,"ny":28,"refTime":"2024-12-14T09:00:00:Z","depth":0,"parameterNumber":2,"parameterNumberName":"U-component_of_WINDS"},"data":[0,0,0,0,0,0,0,0,0,0,0,0,0,0,0,0,0,0,0,0,0,0,0,0,0,0,0,0,0,0,0,0,0,0,0,0,0,0,0,0,0,0,0,0,0,0,0,0,0,0,0,0,0,0,0,0,0,0,-4.9129,-4.9129,0,-4.9111,-4.9111,-4.9111,-4.9011,-4.9009,-4.9006,-4.9004,-4.8988,-4.899,-4.8991,0,0,0,0,0,0,0,0,0,0,0,0,0,-4.9081,-4.9082,-4.9129,-4.9129,-4.9129,-4.9111,-4.9111,-4.9111,-4.9011,-4.9009,-4.9006,-4.9003,-4.8987,-4.8989,-4.8991,0,0,0,0,0,0,0,0,0,0,0,0,0,-4.9087,-4.9083,-4.9129,-4.9077,-4.9072,-4.9111,-4.9111,-4.9111,-4.9012,-4.9008,-4.9005,-4.9002,-4.8986,-4.8989,-4.8992,-4.908,0,0,-4.9,-4.9001,0,0,0,0,0,0,0,0,-4.9086,-4.9088,-4.9085,-4.9081,-4.9075,-4.906,-4.9088,-4.9101,-4.9013,-4.9035,-4.9004,-4.9,-4.9015,-4.9015,-4.9019,-4.908,-4.9079,-4.9,-4.9002,-4.9003,-4.9004,0,0,0,0,0,0,0,-4.9086,-4.9089,-4.9122,-4.9085,-4.9079,-4.9056,-4.9053,-4.909,-4.9045,-4.9033,-4.9026,-4.9025,-4.9011,-4.9017,-4.9018,-4.9079,-4.9,-4.9003,-4.9004,-4.9005,-4.9212,-4.9215,0,0,0,0,0,0,-4.9093,-4.9089,-4.9123,-4.9122,-4.9072,-4.906,-4.9056,-4.9068,-4.9045,-4.9038,-4.9028,-4.902,-4.9014,-4.9015,-4.9017,-4.9119,-4.9003,-4.9006,-4.9007,-4.9208,-4.9212,-4.9217,0,0,0,0,0,0,-4.9092,-4.9097,-4.9124,-4.9103,-4.9105,-4.9064,-4.9079,-4.907,-4.9075,-4.9041,-4.9033,-4.9041,-4.9011,-4.9014,-4.9065,-4.9117,-4.9007,-4.9009,-4.9203,-4.9209,-4.9214,-4.9324,0,0,0,0,0,0,-4.9091,-4.9097,-4.9129,-4.9105,-4.9106,-4.9171,-4.9082,-4.9072,-4.908,-4.907,-4.9051,-4.9045,-4.9009,-4.9062,-4.9068,-4.9119,-4.9011,-4.9198,-4.9206,-4.9213,-4.9316,-4.9333,-4.9348,0,0,0,0,0,-4.909,-4.9161,-4.9131,-4.9136,-4.9146,-4.9174,-4.9175,-4.9131,-4.9085,-4.9117,-4.9095,-4.9046,-4.9111,-4.9068,-4.9074,-4.9127,-4.9195,-4.9204,-4.9212,-4.9309,-4.933,-4.9348,0,0,0,0,0,0,-4.9193,-4.9157,-4.9123,-4.9189,-4.9186,-4.9157,-4.9197,-4.9155,-4.9165,-4.9155,-4.9102,-4.9098,-4.9158,-4.9148,-4.9101,-4.9212,-4.9145,-4.9155,-4.9216,-4.9236,-4.9252,-4.9252,-4.9014,0,0,0,0,0,-4.9224,-4.9249,-4.9216,-4.9278,-4.9277,-4.9238,-4.9249,-4.9216,-4.921,-4.9208,-4.919,-4.9187,-4.9207,-4.9221,-4.9237,-4.9315,-4.9309,-4.9354,-4.937,-4.9384,-4.9393,-4.9433,-4.9453,-4.9245,-4.9245,-4.9245,0,0,-4.9287,-4.927,-4.9289,-4.9298,-4.9291,-4.9319,-4.9237,-4.927,-4.9291,-4.9213,-4.926,-4.9248,-4.9241,-4.9306,-4.9334,-4.9299,-4.9449,-4.9395,-4.9406,-4.9407,-4.9444,-4.9464,-4.9482,-4.9251,-4.925,-4.9249,0,0,-4.9416,-4.9406,-4.9455,-4.9451,-4.9442,-4.9415,-4.9428,-4.9406,-4.9394,-4.9441,-4.9384,-4.9408,-4.9444,-4.9441,-4.9445,-4.9576,-4.9531,-4.9583,-4.9667,-4.9707,-4.9723,-4.9738,-4.9784,-4.9801,-4.9593,-4.9593,-4.9593,0,-4.9495,-4.9534,-4.9487,-4.9524,-4.953,-4.9461,-4.9511,-4.9509,-4.9507,-4.9513,-4.9474,-4.9518,-4.9509,-4.9572,-4.9605,-4.961,-4.9623,-4.9584,-4.9725,-4.9739,-4.9751,-4.9795,-4.9812,-4.96,-4.9599,-4.9598,-4.9598,0,-4.9632,-4.9661,-4.9703,-4.9701,-4.9712,-4.9756,-4.9716,-4.9733,-4.97,-4.9678,-4.9728,-4.9715,-4.9727,-4.9741,-4.9709,-4.9801,-4.9779,-4.9734,-4.9665,-4.9778,-4.9818,-4.9835,-4.9609,-4.9606,-4.9604,-4.9603,0,0,-4.9823,-4.9797,-4.9812,-4.9811,-4.9797,-4.9819,-4.9861,-4.9873,-4.9888,-4.989,-4.9924,-4.9957,-4.9915,-4.9919,-4.9887,-4.9922,-5.0027,-4.9872,-4.9871,-4.9901,-5.0128,-5.0161,-5.0181,-4.9998,-5.0001,-5.0003,-5.0128,0,-4.9946,-5.0014,-4.9974,-5.0048,-5.0074,-5.0011,-5.0047,-5.0044,-5.0025,-5.0046,-5.0026,-5.0049,-4.9992,-4.9995,-5.0027,-5.0007,-5.0072,-4.9998,-5.0029,-5.0031,-5.0031,-5.0202,-5.0237,-5.0355,-5.0143,-5.0146,-5.0148,0,-5.0098,-5.0105,-5.0182,-5.0164,-5.0174,-5.0207,-5.0215,-5.0236,-5.0231,-5.0215,-5.0221,-5.0181,-5.0222,-5.0155,-5.0211,-5.0162,-5.0173,-5.0166,-5.0169,-5.0169,-5.0095,-5.0206,-5.0392,-5.0409,-5.0172,-5.017,-5.0169,0,-5.0228,-5.0258,-5.0308,-5.0309,-5.029,-5.0315,-5.0308,-5.03,-5.031,-5.0318,-5.0324,-5.0338,-5.0345,-5.0357,-5.0322,-5.0277,-5.0383,-5.0314,-5.0371,-5.0372,-5.0395,-5.0394,-5.0584,-5.0405,-5.0404,-5.0404,-5.0404,0,-5.0369,-5.0418,-5.0367,-5.0397,-5.0451,-5.0406,-5.0461,-5.0448,-5.0441,-5.0469,-5.0416,-5.0443,-5.0396,-5.0419,-5.0392,-5.0443,-5.0447,-5.0436,-5.0428,-5.0439,-5.0441,-5.0444,-5.0435,-5.0409,-5.0408,-5.0407,-5.0406,0,-5.0523,-5.049,-5.054,-5.0518,-5.0514,-5.0555,-5.0536,-5.0565,-5.0543,-5.0579,-5.0585,-5.0553,-5.0577,-5.0544,-5.0566,-5.0548,-5.0617,-5.0597,-5.0618,-5.0612,-5.0671,-5.0666,-5.0869,-5.0894,-5.07,-5.0702,-5.0704,0,-5.0613,-5.065,-5.0632,-5.0647,-5.0643,-5.0667,-5.0677,-5.0635,-5.0648,-5.0647,-5.0675,-5.0696,-5.0709,-5.0752,-5.0731,-5.0747,-5.0727,-5.0798,-5.0729,-5.074,-5.0727,-5.0725,-5.0728,-5.0811,-5.0813,-5.0815,-5.0817,0,-5.0778,-5.076,-5.0777,-5.0789,-5.0802,-5.081,-5.0813,-5.0829,-5.0784,-5.0802,-5.0826,-5.0837,-5.086,-5.0881,-5.0892,-5.0886,-5.0845,-5.0839,-5.0853,-5.0864,-5.0875,-5.0869,-5.0655,-5.0834,-5.0832,-5.0831,-5.083,-5.0829,-5.0902,-5.0932,-5.0924,-5.0945,-5.0943,-5.0948,-5.0973,-5.0956,-5.0975,-5.0989,-5.0964,-5.0995,-5.0991,-5.1002,-5.1001,-5.1026,-5.0995,-5.1016,-5.1021,-5.1026,-5.1035,-5.0873,-5.1028,-5.1027,-5.1027,-5.1026,-5.1026,0,-5.1062,-5.1055,-5.1074,-5.1081,-5.1098,-5.1058,-5.106,-5.1077,-5.1105,-5.1104,-5.1119,-5.1148,-5.1169,-5.115,-5.1167,-5.1191,-5.1172,-5.1196,-5.1193,-5.1193,-5.1061,-5.1047,-5.1211,-5.1211,-5.1211,-5.1211,-5.1211,-5.1211,-5.1148,-5.1196,-5.1178,-5.1226,-5.1218,-5.1247,-5.1252,-5.1257,-5.1256,-5.1291,-5.1307,-5.1295,-5.1288,-5.1304,-5.1322,-5.1316,-5.1325,-5.1356,-5.1343,-5.122,-5.1202,-5.1185,-5.1171,-5.1358,-5.1359,-5.1472,-5.1473,-5.1474]},{"header":{"parameterUnit":"m.s-1","parameterCategory":1,"la1":30.2991,"la2":30.254,"lo1":-89.0895,"lo2":-89.0444,"dy":0.0017,"dx":0.0017,"nx":28,"ny":28,"refTime":"2024-12-14T09:00:00:Z","depth":0,"parameterNumber":3,"parameterNumberName":"V-component_of_WINDS"},"data":[0,0,0,0,0,0,0,0,0,0,0,0,0,0,0,0,0,0,0,0,0,0,0,0,0,0,0,0,0,0,0,0,0,0,0,0,0,0,0,0,0,0,0,0,0,0,0,0,0,0,0,0,0,0,0,0,0,0,0.5016,0.5016,0,0.5051,0.5052,0.5052,0.5089,0.5089,0.509,0.509,0.5124,0.5124,0.5125,0,0,0,0,0,0,0,0,0,0,0,0,0,0.498,0.4981,0.5016,0.5016,0.5017,0.5051,0.5052,0.5052,0.5089,0.5089,0.509,0.5091,0.5124,0.5124,0.5125,0,0,0,0,0,0,0,0,0,0,0,0,0,0.5004,0.4981,0.5016,0.5039,0.5042,0.5051,0.5052,0.5052,0.5089,0.5089,0.509,0.5091,0.5124,0.5124,0.5125,0.5113,0,0,0.5127,0.5127,0,0,0,0,0,0,0,0,0.5002,0.5005,0.5035,0.5038,0.5041,0.5067,0.5051,0.5073,0.5088,0.5071,0.509,0.5091,0.5104,0.5106,0.5111,0.5115,0.5116,0.5127,0.5127,0.5127,0.5128,0,0,0,0,0,0,0,0.5001,0.5004,0.503,0.5036,0.5039,0.5048,0.5052,0.5056,0.5083,0.5072,0.5075,0.5079,0.5106,0.511,0.5112,0.5117,0.5127,0.5127,0.5128,0.5128,0.5115,0.5115,0,0,0,0,0,0,0.4996,0.5002,0.5029,0.5031,0.5023,0.5048,0.5053,0.5057,0.5083,0.5087,0.5078,0.5081,0.5109,0.5111,0.5114,0.5104,0.5127,0.5128,0.5128,0.5116,0.5115,0.5114,0,0,0,0,0,0,0.4995,0.4998,0.5027,0.5017,0.5022,0.5048,0.5053,0.5058,0.5063,0.5087,0.5092,0.5078,0.511,0.5113,0.5114,0.5105,0.5128,0.5129,0.5117,0.5116,0.5115,0.5082,0,0,0,0,0,0,0.4994,0.4997,0.4993,0.5017,0.5022,0.5027,0.5052,0.5058,0.5064,0.5067,0.5088,0.5093,0.5111,0.5113,0.5114,0.5106,0.5129,0.5118,0.5116,0.5115,0.5084,0.508,0.5076,0,0,0,0,0,0.4992,0.4981,0.4992,0.4995,0.5017,0.5026,0.5029,0.5051,0.5063,0.5059,0.5075,0.5092,0.5106,0.5112,0.5115,0.5107,0.5118,0.5117,0.5115,0.5086,0.5081,0.5076,0,0,0,0,0,0,0.4953,0.4984,0.4997,0.4994,0.5007,0.5033,0.5028,0.5044,0.5054,0.5057,0.5082,0.5087,0.5085,0.5096,0.5103,0.5098,0.5115,0.5113,0.5091,0.5087,0.5083,0.5081,0.513,0,0,0,0,0,0.4945,0.495,0.4976,0.4971,0.4977,0.5001,0.5006,0.5022,0.5036,0.5042,0.5058,0.5071,0.5079,0.5083,0.5091,0.5086,0.5092,0.5081,0.5078,0.5074,0.5073,0.5073,0.507,0.5109,0.5109,0.5109,0,0,0.4926,0.4944,0.4945,0.4963,0.4976,0.4981,0.5006,0.5009,0.5014,0.5042,0.5045,0.5058,0.5074,0.5073,0.5072,0.5081,0.5064,0.5072,0.507,0.507,0.5071,0.5068,0.5064,0.5108,0.5108,0.5108,0,0,0.4896,0.4909,0.4907,0.4919,0.4938,0.4955,0.4955,0.4978,0.4988,0.4992,0.5014,0.5019,0.5031,0.5043,0.5051,0.5027,0.5044,0.5029,0.501,0.501,0.5007,0.5004,0.4998,0.4995,0.5028,0.5028,0.5028,0,0.487,0.4879,0.4903,0.4907,0.4915,0.4943,0.4941,0.4952,0.4972,0.4977,0.4987,0.5005,0.5018,0.502,0.5015,0.502,0.5021,0.5027,0.5005,0.5003,0.5001,0.4995,0.4992,0.5026,0.5026,0.5026,0.5027,0,0.4848,0.4854,0.485,0.4871,0.4878,0.4879,0.4904,0.4909,0.4924,0.494,0.4945,0.4961,0.4975,0.4976,0.499,0.4982,0.4987,0.5,0.5018,0.4995,0.499,0.4988,0.5023,0.5024,0.5025,0.5025,0,0,0.4792,0.4829,0.4827,0.4838,0.4863,0.4868,0.487,0.4885,0.4889,0.4903,0.4907,0.4917,0.4931,0.494,0.4956,0.4955,0.4939,0.4969,0.497,0.4965,0.4932,0.4923,0.492,0.495,0.4949,0.4949,0.4932,0,0.4767,0.4775,0.4798,0.4799,0.4806,0.4833,0.4836,0.4852,0.4867,0.4875,0.4892,0.49,0.4916,0.4922,0.4923,0.494,0.4933,0.4942,0.4954,0.4954,0.495,0.4917,0.4906,0.4889,0.493,0.4929,0.4929,0,0.4738,0.4752,0.4754,0.4781,0.4785,0.4787,0.4803,0.481,0.4829,0.484,0.4851,0.487,0.4875,0.4891,0.4899,0.4905,0.4912,0.4921,0.4921,0.4924,0.4941,0.492,0.4884,0.4881,0.4926,0.4926,0.4926,0,0.47,0.4719,0.4724,0.4732,0.4763,0.4764,0.4777,0.4796,0.4804,0.4818,0.4824,0.4838,0.4846,0.4857,0.4879,0.4888,0.4886,0.4902,0.4896,0.4895,0.4894,0.4894,0.486,0.4896,0.4896,0.4896,0.4896,0,0.4671,0.4671,0.4708,0.471,0.4712,0.4739,0.474,0.4755,0.4773,0.478,0.4804,0.4809,0.4838,0.4847,0.4864,0.487,0.4873,0.4882,0.4887,0.4881,0.488,0.4886,0.4888,0.4896,0.4896,0.4896,0.4896,0,0.4628,0.4653,0.466,0.4689,0.4697,0.4697,0.4722,0.4726,0.4744,0.4752,0.4755,0.4783,0.4795,0.4819,0.4836,0.4848,0.485,0.4858,0.4844,0.4848,0.484,0.4841,0.481,0.4808,0.4844,0.4843,0.4843,0,0.4608,0.461,0.464,0.4647,0.4659,0.4669,0.4679,0.4705,0.4714,0.4737,0.4738,0.4753,0.4766,0.4784,0.4806,0.482,0.4829,0.4817,0.4831,0.4826,0.4831,0.4831,0.4832,0.4814,0.4813,0.4813,0.4813,0,0.4571,0.4583,0.4596,0.4613,0.4624,0.4639,0.4654,0.4659,0.4689,0.4698,0.4711,0.4722,0.4742,0.4756,0.4774,0.4787,0.4806,0.4808,0.4808,0.4802,0.4795,0.48,0.4837,0.4809,0.4809,0.4809,0.481,0.481,0.454,0.4544,0.4566,0.458,0.4596,0.4611,0.4617,0.4636,0.4648,0.4668,0.4683,0.4695,0.4716,0.4743,0.4755,0.4766,0.4774,0.4773,0.4773,0.4772,0.4771,0.4792,0.4769,0.4769,0.4769,0.4769,0.4769,0,0.4505,0.4522,0.4534,0.4557,0.4568,0.4586,0.4605,0.4613,0.4625,0.4643,0.4656,0.4673,0.4687,0.4711,0.4728,0.4732,0.4741,0.4736,0.4736,0.4739,0.4761,0.4761,0.4728,0.4728,0.4728,0.4728,0.4728,0.4728,0.4488,0.4496,0.4512,0.4528,0.4545,0.4559,0.4568,0.4583,0.4598,0.4616,0.4629,0.4645,0.4665,0.4684,0.4699,0.4706,0.4711,0.4704,0.4713,0.4733,0.4737,0.4741,0.4741,0.4704,0.4704,0.469,0.469,0.469]}]]